#timestamp,LO_Frequency,Hit 
1505044815.4,286046997.3,N
1505044835.2,286046997.5,N
1505044855.0,286046997.9,N
1505044855.9,286046997.9,N
1505044875.8,286047001.0,N
1505044895.6,286046998.2,N
1505044915.4,286047000.8,N
1505044935.2,286047000.6,N
1505044955.1,286047000.3,N
1505044956.0,286047000.3,N
1505044975.8,286046997.0,N
1505044995.6,286046999.6,N
1505045015.5,286046999.9,N
1505045035.3,286046999.4,N
1505045055.1,286047000.3,N
1505045075.9,286047002.1,N
1505045095.7,286046998.6,N
1505045115.5,286046999.7,N
1505045135.4,286047003.5,N
1505045155.2,286047003.7,N
1505045175.0,286047004.3,N
1505045175.9,286047004.3,N
1505045195.8,286046999.8,N
1505045215.6,286047004.3,N
1505045235.4,286047001.9,N
1505045255.3,286046999.4,N
1505045275.1,286047001.0,N
1505045295.8,286047000.4,N
1505045315.7,286046998.6,N
1505045335.5,286046996.8,N
1505045355.3,286046996.9,N
1505045375.2,286046996.9,N
1505045395.9,286047001.2,N
1505045415.7,286047004.3,N
1505045435.5,286047000.0,N
1505045455.4,286046997.7,N
1505045475.2,286046997.7,N
1505045495.0,286046996.8,N
1505045495.9,286046996.8,N
1505045515.8,286046997.2,N
1505045535.6,286046997.1,N
1505045555.4,286046997.5,N
1505045575.3,286046995.7,N
1505045595.1,286046994.5,N
1505045615.8,286046993.8,N
1505045635.7,286046995.8,N
1505045655.5,286046995.1,N
1505045675.3,286046994.9,N
1505045695.2,286046999.4,N
1505045715.9,286046996.5,N
1505045735.7,286046997.5,N
1505045755.6,286046999.0,N
1505045775.4,286046998.3,N
1505045795.2,286046998.9,N
1505045815.0,286046997.8,N
1505045815.9,286046997.8,N
1505045835.8,286046995.2,N
1505045855.6,286046997.6,N
1505045875.4,286046999.5,N
1505045895.3,286046997.3,N
1505045915.1,286046998.7,N
1505045935.8,286046995.3,N
1505045955.7,286046995.3,N
1505045975.5,286046998.5,N
1505045995.3,286047000.4,N
1505046015.2,286047000.1,N
1505046035.9,286047000.6,N
1505046055.7,286046999.7,N
1505046075.6,286047000.2,N
1505046095.4,286047000.0,N
1505046115.2,286046999.9,N
1505046135.0,286047002.4,N
1505046136.0,286047002.4,N
1505046155.8,286046999.4,N
1505046175.6,286047000.6,N
1505046195.4,286047001.5,N
1505046215.3,286047003.3,N
1505046235.1,286047002.9,N
1505046255.8,286047003.6,N
1505046275.7,286047004.0,N
1505046295.5,286047001.8,N
1505046315.3,286047003.7,N
1505046335.2,286047002.1,N
1505046355.9,286047002.4,N
1505046375.7,286047000.0,N
1505046395.6,286047000.1,N
1505046415.4,286047002.7,N
1505046435.2,286046996.8,N
1505046455.1,286046996.6,N
1505046456.0,286046996.6,N
1505046475.8,286046995.0,N
1505046495.6,286046995.8,N
1505046515.5,286046997.2,N
1505046535.3,286046997.9,N
1505046555.1,286047000.1,N
1505046575.9,286047002.8,N
1505046595.7,286046999.1,N
1505046615.5,286046995.0,N
1505046635.3,286046999.2,N
1505046655.2,286046999.3,N
1505046675.0,286046999.3,N
1505046675.9,286046999.3,N
1505046695.7,286046997.1,N
1505046715.6,286047000.1,N
1505046735.4,286047002.3,N
1505046755.2,286046998.5,N
1505046775.1,286046998.9,N
1505046776.0,286046998.9,N
1505046795.8,286046997.1,N
1505046815.6,286046998.9,N
1505046835.5,286047001.6,N
1505046855.3,286047001.0,N
1505046875.1,286046999.6,N
1505046895.9,286046995.7,N
1505046915.7,286046995.2,N
1505046935.5,286046995.3,N
1505046955.4,286046997.0,N
1505046975.2,286046997.5,N
1505046995.0,286046996.3,N
1505046995.9,286046996.3,N
1505047015.8,286046995.5,N
1505047035.6,286046995.5,N
1505047055.4,286046994.7,N
1505047075.3,286046994.3,N
1505047095.1,286046994.3,N
1505047096.0,286046994.3,N
1505047115.8,286046992.4,P
1505047135.7,286046993.4,N
1505047155.5,286046995.0,N
1505047175.3,286046996.8,N
1505047195.2,286047000.9,N
1505047215.9,286046998.3,N
1505047235.7,286046998.8,N
1505047255.5,286046998.8,N
1505047275.4,286046998.8,N
1505047295.2,286046999.3,N
1505047315.0,286047002.1,N
1505047315.9,286047002.1,N
1505047335.8,286047000.0,N
1505047355.6,286047000.0,N
1505047375.4,286047000.9,N
1505047395.3,286047001.7,N
1505047415.1,286047001.9,N
1505047435.8,286047002.5,N
1505047455.7,286046999.7,N
1505047475.5,286047000.1,N
1505047495.3,286047002.5,N
1505047515.2,286046999.9,N
1505047535.9,286047000.7,N
1505047555.7,286046995.6,N
1505047575.6,286046997.5,N
1505047595.4,286046996.7,N
1505047615.2,286046999.6,N
1505047635.0,286047000.8,N
1505047636.0,286047000.8,N
1505047655.8,286046998.5,N
1505047675.6,286046993.8,N
1505047695.5,286046992.2,P
1505047715.3,286046993.4,N
1505047735.1,286046992.2,N
1505047755.9,286046994.0,N
1505047775.7,286046997.8,N
1505047795.5,286046995.6,N
1505047815.3,286046996.0,N
1505047835.2,286046993.4,N
1505047855.0,286046997.1,N
1505047855.9,286046997.1,N
1505047875.7,286046998.7,N
1505047895.6,286046998.5,N
1505047915.4,286046999.0,N
1505047935.2,286046998.4,N
1505047955.1,286046996.7,N
1505047956.0,286046996.7,N
1505047975.8,286046999.1,N
1505047995.6,286046998.1,N
1505048015.5,286046999.1,N
1505048035.3,286046996.6,N
1505048055.1,286046998.1,N
1505048075.9,286046996.7,N
1505048095.7,286046997.3,N
1505048115.5,286046996.9,N
1505048135.4,286046998.3,N
1505048155.2,286046998.3,N
1505048175.0,286047000.9,N
1505048175.9,286047000.9,N
1505048195.8,286047001.0,N
1505048215.6,286047001.5,N
1505048235.4,286047001.0,N
1505048255.2,286046999.5,N
1505048275.1,286046998.4,N
1505048276.0,286046998.4,N
1505048295.8,286046996.5,N
1505048315.6,286046999.0,N
1505048335.5,286047002.7,N
1505048355.3,286047001.3,N
1505048375.1,286047004.3,N
1505048395.9,286047001.8,N
